[[{"header":{"parameterUnit":"m.s-1","parameterCategory":1,"la1":30.2991,"la2":30.254,"lo1":-89.0895,"lo2":-89.0444,"dy":0.0017,"dx":0.0017,"nx":28,"ny":28,"refTime":"2024-06-15T09:00:00:Z","depth":0,"parameterNumber":2,"parameterNumberName":"U-component_of_WINDS"},"data":[0,0,0,0,0,0,0,0,0,0,0,0,0,0,0,0,0,0,0,0,0,0,0,0,0,0,0,0,0,0,0,0,0,0,0,0,0,0,0,0,0,0,0,0,0,0,0,0,0,0,0,0,0,0,0,0,0,0,-6.9036,-6.9038,0,-6.9238,-6.924,-6.9243,-6.9316,-6.9315,-6.9315,-6.9314,-6.9507,-6.9512,-6.9518,0,0,0,0,0,0,0,0,0,0,0,0,0,-6.8699,-6.8704,-6.9036,-6.9038,-6.9041,-6.9238,-6.9241,-6.9243,-6.9316,-6.9315,-6.9314,-6.9314,-6.9505,-6.9512,-6.9519,0,0,0,0,0,0,0,0,0,0,0,0,0,-6.8867,-6.8706,-6.9035,-6.9101,-6.9109,-6.9237,-6.9241,-6.9244,-6.9316,-6.9315,-6.9314,-6.9313,-6.9503,-6.9511,-6.9519,-6.9592,0,0,-6.9546,-6.955,0,0,0,0,0,0,0,0,-6.8857,-6.8879,-6.9089,-6.9097,-6.9106,-6.9251,-6.9193,-6.936,-6.9316,-6.9237,-6.9314,-6.9313,-6.9421,-6.9437,-6.9476,-6.9601,-6.961,-6.9547,-6.9552,-6.9555,-6.9558,0,0,0,0,0,0,0,-6.8846,-6.8871,-6.9115,-6.9092,-6.9102,-6.9116,-6.9139,-6.9225,-6.9332,-6.9244,-6.925,-6.9274,-6.9426,-6.9468,-6.9481,-6.9613,-6.9546,-6.9554,-6.9559,-6.9563,-6.9807,-6.9808,0,0,0,0,0,0,-6.8825,-6.8861,-6.9109,-6.9121,-6.8977,-6.9123,-6.9149,-6.9205,-6.9331,-6.935,-6.9274,-6.9276,-6.9454,-6.9471,-6.9488,-6.9582,-6.9555,-6.9563,-6.9568,-6.9806,-6.9807,-6.9809,0,0,0,0,0,0,-6.8817,-6.8846,-6.9101,-6.8993,-6.9026,-6.913,-6.9193,-6.921,-6.9252,-6.9354,-6.9372,-6.9298,-6.9454,-6.9476,-6.9567,-6.959,-6.9567,-6.9575,-6.9804,-6.9806,-6.9808,-6.977,0,0,0,0,0,0,-6.8807,-6.8843,-6.8875,-6.8993,-6.9032,-6.918,-6.9194,-6.9214,-6.9269,-6.9273,-6.9382,-6.9399,-6.9455,-6.9554,-6.9576,-6.9601,-6.9582,-6.9802,-6.9805,-6.9807,-6.977,-6.977,-6.9771,0,0,0,0,0,-6.8795,-6.8853,-6.8876,-6.8906,-6.9075,-6.9181,-6.9203,-6.927,-6.927,-6.9301,-6.9367,-6.9395,-6.9584,-6.9562,-6.9588,-6.9616,-6.9801,-6.9804,-6.9807,-6.9769,-6.977,-6.9771,0,0,0,0,0,0,-6.8729,-6.887,-6.8897,-6.8996,-6.9077,-6.9193,-6.9234,-6.9269,-6.9347,-6.9348,-6.9423,-6.9447,-6.9531,-6.9583,-6.9556,-6.9693,-6.9694,-6.9702,-6.9657,-6.9659,-6.9659,-6.9644,-6.9589,0,0,0,0,0,-6.8728,-6.8807,-6.8923,-6.8999,-6.9039,-6.913,-6.9178,-6.9224,-6.9308,-6.9341,-6.9413,-6.949,-6.9567,-6.9616,-6.9692,-6.9778,-6.9801,-6.981,-6.981,-6.9811,-6.9816,-6.9864,-6.9869,-6.9818,-6.9818,-6.9818,0,0,-6.8722,-6.8809,-6.8853,-6.8988,-6.9056,-6.9132,-6.9157,-6.9237,-6.9293,-6.9351,-6.9443,-6.9499,-6.9589,-6.9678,-6.972,-6.9723,-6.9836,-6.9814,-6.9814,-6.9819,-6.9868,-6.9872,-6.9877,-6.982,-6.982,-6.982,0,0,-6.8752,-6.8827,-6.8899,-6.8967,-6.9072,-6.9132,-6.9149,-6.9261,-6.9302,-6.9396,-6.9442,-6.9507,-6.9638,-6.9701,-6.975,-6.9805,-6.9833,-6.9827,-6.983,-6.9876,-6.988,-6.9884,-6.9903,-6.9909,-6.9833,-6.9832,-6.9832,0,-6.8731,-6.8853,-6.8929,-6.9008,-6.9065,-6.9127,-6.9198,-6.9259,-6.938,-6.9416,-6.9419,-6.9586,-6.9651,-6.9755,-6.9769,-6.9807,-6.9826,-6.9814,-6.9875,-6.9879,-6.9884,-6.9902,-6.9909,-6.9831,-6.9831,-6.9831,-6.9831,0,-6.8821,-6.8905,-6.8949,-6.9071,-6.9133,-6.9206,-6.929,-6.9343,-6.9383,-6.9441,-6.9535,-6.9616,-6.971,-6.9738,-6.9776,-6.9847,-6.9846,-6.9861,-6.9863,-6.9886,-6.9904,-6.9912,-6.9829,-6.9829,-6.983,-6.983,0,0,-6.8814,-6.898,-6.8995,-6.9051,-6.9171,-6.9234,-6.9309,-6.9407,-6.945,-6.9531,-6.9594,-6.9704,-6.972,-6.9775,-6.982,-6.9861,-6.9898,-6.9871,-6.9874,-6.9872,-6.998,-6.9968,-6.9975,-6.9919,-6.992,-6.9922,-6.9972,0,-6.8859,-6.9003,-6.9074,-6.9184,-6.9261,-6.9321,-6.9386,-6.9464,-6.9521,-6.9591,-6.9651,-6.9729,-6.9743,-6.9777,-6.9821,-6.9885,-6.9921,-6.9882,-6.9974,-6.9977,-6.9949,-6.9985,-6.9972,-7.0016,-6.998,-6.9982,-6.9982,0,-6.8931,-6.9018,-6.9137,-6.9249,-6.9284,-6.9342,-6.9437,-6.9504,-6.9593,-6.9631,-6.9694,-6.9739,-6.9816,-6.9814,-6.992,-6.9893,-6.9934,-6.9971,-6.9975,-6.9985,-6.998,-6.9994,-7.0032,-7.0038,-6.9995,-6.9994,-6.9993,0,-6.8913,-6.9059,-6.915,-6.9196,-6.9329,-6.9368,-6.9424,-6.9513,-6.9567,-6.9647,-6.9683,-6.9769,-6.9816,-6.9881,-6.9946,-6.9939,-7.0046,-7.0049,-7.0076,-7.0075,-7.0095,-7.0093,-7.0138,-7.0123,-7.0123,-7.0123,-7.0123,0,-6.8955,-6.9025,-6.9144,-6.9199,-6.9279,-6.9358,-6.9433,-6.9493,-6.9572,-6.9637,-6.9692,-6.9751,-6.9835,-6.9903,-6.9955,-7.0034,-7.0054,-7.0085,-7.0097,-7.008,-7.0076,-7.0107,-7.0105,-7.0125,-7.0125,-7.0124,-7.0124,0,-6.8948,-6.9031,-6.9133,-6.9252,-6.9284,-6.9337,-6.9437,-6.949,-6.9551,-6.9633,-6.9656,-6.9749,-6.9832,-6.9905,-7.0013,-7.0048,-7.0129,-7.0145,-7.01,-7.0107,-7.013,-7.0127,-7.0197,-7.0209,-7.0186,-7.0187,-7.0187,0,-6.8969,-6.9026,-6.9152,-6.9203,-6.926,-6.9339,-6.9396,-6.9475,-6.9531,-6.9637,-6.9677,-6.9766,-6.9841,-6.997,-7.0045,-7.0128,-7.0145,-7.0164,-7.0157,-7.0138,-7.0144,-7.014,-7.0145,-7.0163,-7.0163,-7.0163,-7.0163,0,-6.8998,-6.9037,-6.9119,-6.9215,-6.9283,-6.9361,-6.944,-6.9477,-6.957,-6.9629,-6.9718,-6.9777,-6.989,-6.9976,-7.0068,-7.0121,-7.0156,-7.0165,-7.0175,-7.0157,-7.0129,-7.0144,-7.0099,-7.0162,-7.0162,-7.0162,-7.0162,-7.0162,-6.9005,-6.9058,-6.9157,-6.9246,-6.9315,-6.9388,-6.9446,-6.9515,-6.9592,-6.9694,-6.9735,-6.9825,-6.991,-7.0038,-7.0092,-7.016,-7.0166,-7.0181,-7.0185,-7.0187,-7.0184,-7.0119,-7.0177,-7.0177,-7.0177,-7.0177,-7.0177,0,-6.9036,-6.9103,-6.9185,-6.9297,-6.9366,-6.94,-6.9489,-6.9543,-6.9624,-6.9704,-6.9778,-6.9879,-6.9963,-7.0045,-7.0132,-7.0171,-7.0189,-7.0191,-7.0188,-7.0199,-7.0174,-7.0156,-7.0175,-7.0175,-7.0175,-7.0175,-7.0175,-7.0175,-6.9061,-6.9152,-6.9202,-6.9327,-6.9393,-6.9485,-6.9534,-6.96,-6.9665,-6.9777,-6.9849,-6.9904,-6.9983,-7.0077,-7.0155,-7.0176,-7.0205,-7.0202,-7.0227,-7.0202,-7.0201,-7.0201,-7.0184,-7.0208,-7.0208,-7.0247,-7.0248,-7.0248]},{"header":{"parameterUnit":"m.s-1","parameterCategory":1,"la1":30.2991,"la2":30.254,"lo1":-89.0895,"lo2":-89.0444,"dy":0.0017,"dx":0.0017,"nx":28,"ny":28,"refTime":"2024-06-15T09:00:00:Z","depth":0,"parameterNumber":3,"parameterNumberName":"V-component_of_WINDS"},"data":[0,0,0,0,0,0,0,0,0,0,0,0,0,0,0,0,0,0,0,0,0,0,0,0,0,0,0,0,0,0,0,0,0,0,0,0,0,0,0,0,0,0,0,0,0,0,0,0,0,0,0,0,0,0,0,0,0,0,4.593,4.5926,0,4.5605,4.5602,4.5598,4.5356,4.5354,4.5351,4.5349,4.5004,4.4997,4.499,0,0,0,0,0,0,0,0,0,0,0,0,0,4.6329,4.6323,4.593,4.5926,4.5922,4.5606,4.5601,4.5597,4.5356,4.5353,4.5351,4.5349,4.5007,4.4998,4.499,0,0,0,0,0,0,0,0,0,0,0,0,0,4.6095,4.6321,4.5931,4.5764,4.5746,4.5607,4.5601,4.5596,4.5357,4.5353,4.535,4.5347,4.501,4.4999,4.4988,4.4985,0,0,4.4955,4.4951,0,0,0,0,0,0,0,0,4.6109,4.6081,4.5793,4.5775,4.5755,4.5518,4.5615,4.5391,4.5357,4.5504,4.5349,4.5346,4.5177,4.5152,4.5098,4.4969,4.4954,4.4954,4.4948,4.4943,4.494,0,0,0,0,0,0,0,4.6125,4.6093,4.5801,4.5789,4.5765,4.5701,4.5665,4.5572,4.5362,4.5491,4.5473,4.5438,4.5166,4.5109,4.5088,4.4949,4.4955,4.4945,4.4938,4.4934,4.4799,4.4801,0,0,0,0,0,0,4.6169,4.6108,4.5811,4.5791,4.5928,4.5697,4.5656,4.5597,4.5362,4.5324,4.5441,4.5428,4.5129,4.5101,4.5075,4.5054,4.4943,4.4933,4.4927,4.4796,4.4799,4.4802,0,0,0,0,0,0,4.6179,4.6145,4.5824,4.5945,4.5899,4.5693,4.5629,4.5592,4.5535,4.5325,4.5285,4.5423,4.5125,4.509,4.501,4.5039,4.4928,4.4918,4.4792,4.4797,4.4801,4.5014,0,0,0,0,0,0,4.6191,4.615,4.6149,4.5947,4.5894,4.5769,4.5631,4.5588,4.5519,4.5498,4.5297,4.526,4.512,4.5027,4.4999,4.5022,4.491,4.4789,4.4794,4.48,4.5003,4.5025,4.5044,0,0,0,0,0,4.6206,4.622,4.6151,4.6116,4.589,4.5771,4.574,4.5583,4.5522,4.5518,4.5383,4.5266,4.5041,4.5021,4.4987,4.5007,4.4786,4.4793,4.4799,4.4994,4.5021,4.5043,0,0,0,0,0,0,4.6426,4.619,4.6111,4.606,4.5939,4.5731,4.572,4.5616,4.5505,4.5491,4.5296,4.5252,4.5192,4.5091,4.5073,4.4991,4.4899,4.4899,4.5059,4.5082,4.5102,4.5126,4.4901,0,0,0,0,0,4.647,4.6398,4.6194,4.6168,4.6112,4.5928,4.587,4.576,4.5624,4.557,4.5428,4.5298,4.5196,4.5134,4.503,4.4989,4.4939,4.4985,4.5006,4.5023,4.5025,4.4993,4.5011,4.4824,4.4824,4.4824,0,0,4.6557,4.6419,4.6385,4.6209,4.6102,4.6027,4.5885,4.5813,4.5754,4.5557,4.5473,4.5366,4.5206,4.5146,4.5112,4.5059,4.5066,4.5032,4.5048,4.5038,4.5002,4.502,4.5036,4.4828,4.4827,4.4827,0,0,4.6678,4.6568,4.6535,4.6431,4.6272,4.615,4.6142,4.5951,4.5873,4.5787,4.5637,4.5563,4.5394,4.5286,4.521,4.5293,4.518,4.5264,4.5368,4.534,4.5354,4.5366,4.5394,4.5406,4.5266,4.5267,4.5267,0,4.6805,4.6692,4.6529,4.6466,4.6392,4.6215,4.6177,4.6083,4.5897,4.5848,4.5794,4.5579,4.5459,4.537,4.5391,4.5335,4.5317,4.5284,4.5366,4.5377,4.5385,4.5409,4.542,4.5278,4.5277,4.5275,4.5274,0,4.6855,4.6778,4.6769,4.6599,4.6524,4.6474,4.6301,4.6243,4.614,4.6023,4.5936,4.5787,4.5649,4.562,4.5517,4.5516,4.5489,4.5404,4.5306,4.5417,4.5436,4.5444,4.5294,4.529,4.5286,4.5284,0,0,4.7102,4.6845,4.6844,4.6764,4.6577,4.6512,4.6453,4.6323,4.6277,4.6154,4.6097,4.596,4.588,4.5793,4.5676,4.5653,4.5725,4.5568,4.5562,4.5601,4.5712,4.5776,4.579,4.5651,4.5652,4.5653,4.5725,0,4.7191,4.7081,4.6934,4.687,4.6796,4.6627,4.6575,4.6453,4.6342,4.6259,4.6134,4.604,4.5943,4.5889,4.5858,4.5724,4.5744,4.5716,4.5592,4.559,4.5636,4.58,4.5866,4.5941,4.5731,4.5732,4.5733,0,4.728,4.7172,4.7104,4.6922,4.6885,4.6842,4.671,4.6635,4.6491,4.6412,4.6318,4.6193,4.6118,4.6034,4.5927,4.5911,4.5851,4.5778,4.5777,4.5756,4.5667,4.5781,4.5961,4.5973,4.5744,4.5743,4.5742,0,4.7466,4.7302,4.7239,4.7176,4.6964,4.6937,4.6847,4.67,4.6632,4.6515,4.6468,4.6344,4.6275,4.618,4.6024,4.5978,4.5932,4.5836,4.5861,4.5865,4.5856,4.5858,4.6027,4.5823,4.5823,4.5823,4.5823,0,4.7579,4.7543,4.732,4.7281,4.7234,4.7064,4.7021,4.6915,4.6787,4.6721,4.6567,4.6508,4.6307,4.6223,4.61,4.6028,4.5999,4.593,4.5897,4.5942,4.5951,4.5898,4.5888,4.5826,4.5825,4.5825,4.5824,0,4.7777,4.7626,4.7546,4.7354,4.7305,4.7279,4.7111,4.7065,4.6947,4.6866,4.6837,4.6649,4.6543,4.6379,4.6222,4.6139,4.6087,4.6035,4.6137,4.6117,4.6151,4.6149,4.6289,4.6298,4.6094,4.6096,4.6098,0,4.7858,4.7827,4.7633,4.758,4.7497,4.7413,4.7344,4.7175,4.7108,4.6943,4.6916,4.6799,4.6696,4.6533,4.638,4.6259,4.6201,4.6258,4.6181,4.6228,4.6198,4.6202,4.6196,4.6276,4.6279,4.6281,4.6283,0,4.8018,4.7946,4.7853,4.7736,4.7658,4.7556,4.7445,4.741,4.7216,4.7148,4.704,4.6961,4.6803,4.6687,4.6546,4.6447,4.6332,4.631,4.6308,4.6353,4.6413,4.6379,4.6184,4.6306,4.6304,4.6302,4.6301,4.63,4.8157,4.8122,4.798,4.7882,4.7782,4.7683,4.7631,4.7508,4.7417,4.7278,4.7183,4.7081,4.6935,4.6735,4.6643,4.6557,4.6507,4.6506,4.6505,4.6507,4.6523,4.643,4.6531,4.653,4.6529,4.6528,4.6528,0,4.8307,4.8209,4.8121,4.7974,4.7896,4.7801,4.7673,4.7613,4.7527,4.7404,4.7308,4.7182,4.707,4.691,4.6785,4.6747,4.6691,4.6719,4.6718,4.6697,4.6576,4.6588,4.6767,4.6767,4.6767,4.6767,4.6767,4.6766,4.8376,4.831,4.8222,4.8104,4.8003,4.7905,4.7841,4.7748,4.7649,4.7518,4.7426,4.7324,4.7185,4.7049,4.694,4.6895,4.6855,4.69,4.6839,4.6728,4.6706,4.6685,4.6696,4.6893,4.6894,4.6966,4.6967,4.6968]}]]